Flag for Seychelles Weather past 2 weeks in Victoria, Seychelles

Now
81 °F

Passing clouds.


Feels Like: 85 °F
Forecast: 76 / 82 °F
Wind: 6 mph from West

Location: National Airport

Current Time: Mar 1, 2015 at 3:25:06 AM

Latest Report: Mar 1, 2015 at 3:00 AM


Visibility: N/A

Pressure: 29.77 "Hg

Humidity: 79%

Dew point: 73 °F

Location of VictoriaLocation

Historic Weather in Victoria — Graph

°F

Victoria temperature yesterday

Maximum temperature yesterday: 88 °F (at 1:00 PM)
Minimum temperature yesterday: 79 °F (at 4:00 AM)
Average temperature yesterday: 83 °F

Past Weeks' High & Low Weather Summary

 TemperatureHumidityPressure
High88 °F (Feb 15, 3:00 PM)100% (Feb 19, 8:00 PM)29.95 "Hg (Feb 19, 8:00 PM)
Low75 °F (Feb 19, 11:00 PM)62% (Feb 15, 3:00 PM)29.74 "Hg (Feb 25, 2:00 PM)
Average82 °F78%29.84 "Hg
* Reported Feb 14 2:00 AM — Mar 1 2:00 AM, Victoria, Weather by CustomWeather, © 2015

Note: Actual official high and low records may vary slightly from our data, if they occured in-between our weather recording intervals... More about our weather records

Advertising

Victoria weather history for previous 24 hours

 ConditionsComfort  
Time TempWeatherWind HumidityBarometerVisibility
2:00 AM
Sun, Mar 1
81 °FPassing clouds.6 mph79%29.77 "HgN/A
1:00 AM81 °FPassing clouds.6 mph79%29.80 "HgN/A
12:00 AM81 °FPassing clouds.6 mph79%29.83 "HgN/A
11:00 PM
Sat, Feb 28
81 °FPassing clouds.6 mph79%29.83 "HgN/A
10:00 PM81 °FPassing clouds.6 mph79%29.83 "HgN/A
9:00 PM82 °FPassing clouds.6 mph74%29.83 "HgN/A
8:00 PM82 °FPassing clouds.7 mph74%29.80 "HgN/A
7:00 PM82 °FPassing clouds.10 mph74%29.77 "HgN/A
6:00 PM84 °FScattered clouds.10 mph70%29.74 "HgN/A
5:00 PM84 °FScattered clouds.9 mph70%29.74 "HgN/A
4:00 PM86 °FScattered clouds.8 mph66%29.74 "HgN/A
3:00 PM86 °FPartly sunny.12 mph66%29.74 "HgN/A
2:00 PM86 °FPartly sunny.12 mph70%29.77 "HgN/A
1:00 PM88 °FScattered clouds.13 mph66%29.80 "HgN/A
12:00 PM86 °FPartly sunny.13 mph70%29.83 "HgN/A
11:00 AM86 °FPartly sunny.12 mph70%29.83 "HgN/A
10:00 AM86 °FPartly sunny.10 mph70%29.86 "HgN/A
9:00 AM84 °FPartly sunny.9 mph74%29.86 "HgN/A
8:00 AM82 °FScattered clouds.6 mph74%29.83 "HgN/A
7:00 AM81 °FScattered clouds.6 mph79%29.83 "HgN/A
6:00 AM81 °FPassing clouds.7 mph79%29.80 "HgN/A
5:00 AM81 °FPassing clouds.7 mph74%29.77 "HgN/A
4:00 AM79 °FPassing clouds.7 mph84%29.74 "HgN/A
3:00 AM81 °FPassing clouds.7 mph79%29.77 "HgN/A
Weather by CustomWeather, © 2015

See weather overviewHow to use our weather pages